Regional Weather Roundup
Issued by NWS

Home | Current Version | Previous Version | Text Only | Print | Product List | Glossary On
Versions: 1 2 3 4 5 6 7 8 9 10 11 12 13 14 15 16 17 18 19 20 21 22 23 24 25 26 27 28 29 30 31 32 33 34 35 36 37 38 39 40 41 42 43 44 45 46 47 48 49 50
000
ASUS45 KTFX 161004
RWRMT
MONTANA HOURLY WEATHER ROUNDUP
NATIONAL WEATHER SERVICE GREAT FALLS MT
404 AM MDT WED APR 16 2014

NOTE: "FAIR" INDICATES FEW OR NO CLOUDS BELOW 12000 FEET WITH NO
SIGNIFICANT WEATHER AND/OR OBSTRUCTIONS TO VISIBILITY.

* THESE STATIONS ARE NOT UNDER NWS QUALITY CONTROL. THEY DO NOT
   REPORT WEATHER SUCH AS PRECIPITATION OR FOG.

MTZ001>007-043-161100-
WEST OF THE DIVIDE
CITY           SKY/WX    TMP DP  RH WIND       PRES   REMARKS
KALISPELL      FOG       27  27 100 CALM      29.93S VSB 2
MISSOULA       PTCLDY    30  28  92 N3        29.99S
BUTTE          CLOUDY    30  19  64 CALM      29.95S
MULLAN PASS    PTCLDY    27  21  78 S8        29.91S WCI  19
* ESSEX        N/A       32  31  96 N/A        N/A
* LINCOLN      N/A       32  29  89 S2G7       N/A
* LOOKOUT PASS N/A       29  28  96 N/A        N/A
* POLSON       N/A       30  27  89 S1         N/A
* RONAN APT    PTCLDY    36  28  73 N/A        N/A
* SEELEY LAKE  N/A       32  31  96 N/A        N/A
* THOMP F APT  PTCLDY    29  14  53 N12G21     N/A   WCI  19
* YAAK HILL    N/A       30  29  96 N/A        N/A
$$

MTZ008-052>055-161100-
SOUTHWEST MONTANA
CITY           SKY/WX    TMP DP  RH WIND       PRES   REMARKS
BOZEMAN        CLOUDY    34  28  79 SE9       29.96S WCI  27
DILLON         MOCLDY    30  18  61 S7        29.96S WCI  23
W YELLOWSTONE  N/A       21  19  92 N/A        N/A
* THREE FORKS  CLOUDY    39  25  57 N/A        N/A
* BOULDER HILL N/A       32  19  59 S2G8       N/A
* MONIDA PASS  N/A       25  13  60 W12G20     N/A   WCI  14
* RAYNOLDS PAS N/A       22  22 100 N4         N/A
* WHITEHALL    N/A       33  18  54 NW5G11     N/A   WCI  28
* WISE RIVER   N/A       30  18  61 W6G12      N/A   WCI  24
$$

MTZ009>010-012-014-046-048-049-054-161100-
EAST SLOPES AND CENTRAL MONTANA
CITY           SKY/WX    TMP DP  RH WIND       PRES   REMARKS
CUT BANK       SNOW      34  32  92 CALM      29.90S VSB 1/2
GREAT FALLS    CLOUDY    34  34 100 NW10      29.90R WCI  26
HELENA         PTCLDY    37  27  67 W9        29.94R WCI  30
MALMSTROM AFB  LGT SNOW  34  30  85 N6        29.89R VSB 1 1/2 WCI  29
* CONRAD       MOCLDY    34  34 100 N/A        N/A
* DEARBORN     N/A       31  30  96 SW2        N/A
* EAST GLACIER N/A       30  29  96 NE6        N/A   WCI  24
* MONARCH      N/A       29  26  89 SW11G16    N/A   WCI  19
* PENDROY      N/A       31  30  96 NE2        N/A
* ROGERS PASS  N/A       30  26  85 E8         N/A   WCI  22
* SAINT MARY   N/A       31  30  96 SE2        N/A
* SWEET GRASS  N/A       32  32 100 S4         N/A
$$

MTZ011-013-016-021-035-040-045-047-050-051-161100-
NORTH CENTRAL MONTANA
CITY           SKY/WX    TMP DP  RH WIND       PRES   REMARKS
HAVRE          LGT SNOW  32  30  92 CALM      29.94R
LEWISTOWN      LGT SNOW  32  32 100 W6        29.88R WCI  26
* CHESTER      N/A       32  30  92 N/A        N/A
* DENTON       N/A       33  32  96 W4G9       N/A
* GEYSER       N/A       34  33  96 NW9        N/A   WCI  27
* JUDITH GAP   N/A       32  32 100 N3         N/A
* LOMA         N/A       35  30  82 VRB12      N/A   WCI  27
$$

MTZ017>020-022>027-061-062-161100-
NORTHEAST MONTANA
CITY           SKY/WX    TMP DP  RH WIND       PRES   REMARKS
GLASGOW        PTCLDY    25  19  78 CALM      29.91R
GLENDIVE       CLOUDY    28  18  66 NE14      29.82R WCI  17
JORDAN         CLOUDY    28  19  69 N7        29.85R WCI  21
SIDNEY         MOCLDY    28  19  69 NE12      29.89R WCI  18
WOLF POINT     PTCLDY    27  19  72 NE13      29.90R WCI  16
* BEAVER HILL  N/A       25  17  72 NE11       N/A   WCI  14
* CIRCLE       N/A       29  20  69 N7G14      N/A   WCI  22
* LINDSAY DVD  N/A       26  19  75 NE11       N/A   WCI  16
* NAVAJO       N/A       24  20  85 E14G19     N/A   WCI  12
* SACO         N/A       20  15  81 VRB8       N/A   WCI  10
$$

MTZ028>042-056>058-161100-
SOUTHCENTRAL AND SOUTHEAST MONTANA
CITY           SKY/WX    TMP DP  RH WIND       PRES   REMARKS
BAKER          MOCLDY    28  21  75 E7        29.74R WCI  21
BILLINGS       CLOUDY    39  32  76 W23       29.88R WCI  28
LIVINGSTON     CLOUDY    36  27  70 W20G28    29.92R WCI  25
MILES CITY     CLOUDY    37  25  62 N8        29.79R WCI  31
* LAUREL APT   MOCLDY    37  27  67 W17        N/A   WCI  27
* ROUNDUP APT  MOCLDY    39  28  65 W9         N/A   WCI  33
* HYSHAM       N/A       38  22  53 NW5G11     N/A   WCI  34
* LAME DEER    N/A       34  32  92 W13G18     N/A   WCI  25
* REED POINT   N/A       38  29  70 W11G17     N/A   WCI  31
* ROSCOE HILL  N/A       34  16  48 W6G13      N/A   WCI  29
$$

REGIONAL REPORTS...DAKOTAS
CITY           SKY/WX    TMP DP  RH WIND       PRES   REMARKS
WILLISTON      MOCLDY   N/A N/A N/A N/A       29.91R
DICKINSON      PTCLDY    25  16  69 NE10      29.78R WCI  15
CROSBY         CLOUDY    23  23 100 E17G24    29.97R WCI   9
TIOGA          CLOUDY    23  23 100 E16G22    29.95R WCI  10
WATFORD CITY   CLOUDY    27  19  72 E14G21    29.86R WCI  16
BISMARCK       CLOUDY    28  19  69 E18G24    29.84R WCI  15
GRAND FORKS    CLOUDY    28  14  56 E10       30.00R WCI  19
FARGO          LGT SNOW  28  25  89 E16       29.96S VSB 2 1/2 WCI  16
BUFFALO SD     MOCLDY    34  25  70 NE13      29.63R WCI  25
RAPID CITY     CLOUDY    39  36  89 N14       29.64R WCI  31
$$

REGIONAL REPORTS...WYOMING/IDAHO/WASHINGTON
CITY           SKY/WX    TMP DP  RH WIND       PRES   REMARKS
GILLETTE       CLOUDY    36  32  85 NW22G30   29.77R WCI  25
SHERIDAN       MOCLDY    37  32  82 NW25G30   29.85R WCI  25
CODY           MOCLDY    34  25  70 NE5       29.88R WCI  29
YELLOWSTONE LA PTCLDY    18  16  92 CALM      29.95S
SALMON         MOCLDY    30  19  64 CALM      30.01S
MULLAN PASS    PTCLDY    27  21  78 S8        29.91S WCI  19
SPOKANE        CLOUDY    39  25  57 SW9       29.96S WCI  33
$$

REGIONAL REPORTS...ALBERTA
CITY           SKY/WX    TMP DP  RH WIND       PRES   REMARKS
LETHBRIDGE     LGT SNOW  30  28  92 N8G17     29.94R VSB 1 3/4 WCI  22

$$




USA.gov is the U.S. government's official web portal to all federal, state and local government web resources and services.